This demonstration page uses our WeatherBlox Daily Observations layout. Learn more.

Left ArrowRight Arrow

Hourly Observations for August 1, 2015

Temp ( °F °C ) Dew Point ( °F °C ) Humidity (%) Winds ( mph kmh ) Pressure ( in mb ) Visibility ( mi km ) Precip ( " mm )
12:54 am 00:54 Clear 68 20 64 17.8 87 87 NW 3 6 30.06 1018 10 16.0934 0 0
1:54 am 01:54 Clear 64 17.8 62 16.7 93 93 NNE 7 11 30.05 1018 10 16.0934 0 0
2:54 am 02:54 Clear 67 19.4 63 17.2 87 87 Calm 30.04 1017 10 16.0934 0 0
3:54 am 03:54 Clear 64 17.8 62 16.7 93 93 Calm 30.03 1017 10 16.0934 0 0
4:54 am 04:54 Clear 67 19.4 63 17.2 87 87 Calm 30.02 1017 10 16.0934 0 0
5:54 am 05:54 Clear 65 18.3 63 17.2 93 93 Calm 30.01 1016 10 16.0934 0 0
6:54 am 06:54 Mostly Cloudy 69 20.6 64 17.8 84 84 NNW 3 6 30.04 1017 10 16.0934 0 0
7:54 am 07:54 Mostly Sunny 72 22.2 61 16.1 68 68 WNW 8 13 30.06 1018 10 16.0934 0 0
8:54 am 08:54 Sunny 74 23.3 62 16.7 67 67 NW 18 30 30.07 1018 10 16.0934 0 0
9:54 am 09:54 Mostly Sunny 73 22.8 60 15.6 64 64 NW 17 28 30.03 1017 10 16.0934 0 0.0254
10:54 am 10:54 Partly Cloudy 74 23.3 60 15.6 62 62 E 7 11 30.01 1016 10 16.0934 0 0
11:54 am 11:54 Mostly Sunny 78 25.6 63 17.2 60 60 SSE 8 13 29.99 1016 10 16.0934 0 0
12:54 pm 12:54 Sunny 79 26.1 63 17.2 58 58 S 9 15 29.98 1015 10 16.0934 0 0
1:54 pm 13:54 Sunny 84 28.9 65 18.3 53 53 SSW 7 11 30 1016 10 16.0934 0 0
2:54 pm 14:54 Sunny 89 31.7 66 18.9 47 47 NW 15 24 30 1016 10 16.0934 0 0
3:54 pm 15:54 Sunny 88 31.1 63 17.2 43 43 N 14 22 29.98 1015 10 16.0934 0 0
4:54 pm 16:54 Sunny 86 30 56 13.3 36 36 SSW 5 7 29.94 1014 10 16.0934 0 0
5:54 pm 17:54 Sunny 87 30.6 59 15 39 39 SSW 8 13 29.9 1013 10 16.0934 0 0
6:54 pm 18:54 Partly Cloudy 84 29 66 19 55 55 NE 9 15 29.97 1015 10 16.0934 0 0
7:54 pm 19:54 Sunny 82 27.8 64 17.8 55 55 VRB 5 7 29.87 1012 10 16.0934 0 0
8:54 pm 20:54 Clear 79 26.1 64 17.8 60 60 S 6 9 29.87 1012 10 16.0934 0 0
9:54 pm 21:54 Clear 77 25 63 17.2 62 62 S 5 7 29.88 1012 10 16.0934 0 0
10:54 pm 22:54 Clear 77 25 68 20 74 74 Calm 29.89 1012 10 16.0934 0 0
11:54 pm 23:54 Clear 71 21.7 66 18.9 84 84 Calm 29.89 1012 10 16.0934 0 0

Powered by AerisWeather